Location: Unspecified
(0.0000°N, 0.0000°E)
Time: 23:54:07
(UTC+00:00)

Vanguard 2 - Pass Details

Date: 06 October 2020
Orbit: 554 x 2937 km, 32.9° (Epoch: 28 October)

Event Time Altitude Azimuth Distance (km) Brightness Sun altitude
Rises 13:21:11 0° 251° (WSW) 3,138 11.0 66.1°
Reaches altitude 10° 13:25:05 10° 219° (SW) 2,562 10.7 65.2°
Maximum altitude 13:27:24 12° 196° (SSW) 2,637 10.6 64.6°
Drops below altitude 10° 13:30:03 10° 175° (S) 3,067 10.8 63.9°
Sets 13:36:06 0° 147° (SSE) 4,682 11.4 62.5°
